Total_Precipitation_Accumulation
1.59 1.60 1.48 1.44 1.30 1.44 1.72 1.91 1.86 2.01 2.14 1.97 1.70 1.58 1.43 1.29 1.23 1.27 1.46 1.63 1.51 1.56 1.82 1.95 1.90 1.78 1.72 1.54 1.33 1.22 1.17 1.12 0.94 0.70 0.55 0.52 0.48 0.36 0.29 0.29 0.28 0.27 0.23
1.80 1.82 1.68 1.58 1.33 1.37 1.59 1.84 1.87 2.03 2.01 2.02 1.66 1.54 1.42 1.42 1.32 1.30 1.43 1.61 1.56 1.43 1.52 1.80 1.99 2.06 2.01 1.88 1.65 1.38 1.24 1.17 1.03 0.79 0.61 0.56 0.52 0.46 0.43 0.42 0.37 0.28 0.20
2.05 2.04 1.87 1.59 1.44 1.61 1.70 1.70 1.75 2.13 1.97 1.82 1.62 1.68 1.64 1.58 1.42 1.38 1.43 1.55 1.39 1.32 1.31 1.44 1.70 1.94 2.20 2.24 2.03 1.79 1.52 1.27 1.06 0.82 0.66 0.55 0.50 0.46 0.46 0.46 0.46 0.37 0.24
2.00 2.14 1.83 1.50 1.63 1.81 1.77 1.70 1.74 1.96 1.96 2.03 1.91 1.77 1.67 1.55 1.23 1.20 1.24 1.25 1.33 1.11 1.21 1.42 1.55 1.64 2.05 2.36 2.42 2.37 1.99 1.56 1.18 0.89 0.72 0.61 0.55 0.49 0.43 0.37 0.37 0.39 0.29
1.42 1.46 1.16 1.08 1.31 1.39 1.27 1.23 1.49 1.66 1.68 1.80 1.77 1.56 1.37 1.20 1.04 0.99 1.01 0.88 0.98 1.01 1.04 1.24 1.43 1.51 1.88 2.37 2.82 2.98 2.66 2.13 1.62 1.21 1.01 0.86 0.72 0.59 0.47 0.41 0.38 0.37 0.30
0.98 1.00 0.80 0.79 1.03 1.09 1.05 1.16 1.25 1.28 1.23 1.29 1.19 0.98 0.94 0.80 0.81 0.78 0.69 0.71 0.73 0.74 0.86 1.04 1.28 1.19 1.61 2.14 2.59 2.84 2.85 2.56 2.06 1.70 1.50 1.29 1.09 0.83 0.55 0.43 0.40 0.38 0.30
0.85 0.93 0.79 0.87 1.00 1.01 1.01 1.05 1.09 1.01 0.85 1.01 1.08 0.83 0.66 0.60 0.61 0.56 0.55 0.55 0.51 0.59 0.79 0.99 1.17 1.24 1.18 1.31 1.70 2.07 2.55 2.81 2.49 2.07 1.86 1.68 1.49 1.17 0.82 0.63 0.49 0.40 0.33
0.70 0.79 0.75 0.65 0.69 0.72 0.67 0.71 0.88 0.89 0.77 0.89 1.00 0.89 0.67 0.64 0.57 0.40 0.44 0.45 0.45 0.57 0.73 0.83 1.05 1.24 1.24 1.41 1.14 1.30 1.91 2.43 2.72 2.61 2.30 1.91 1.60 1.31 1.05 0.89 0.68 0.51 0.43
0.46 0.52 0.54 0.55 0.61 0.67 0.66 0.66 0.69 0.73 0.66 0.66 0.80 0.93 0.75 0.56 0.48 0.42 0.41 0.40 0.47 0.62 0.71 0.87 0.94 1.02 1.14 1.37 1.35 1.24 1.48 1.66 2.32 2.81 2.68 2.14 1.58 1.23 1.11 1.11 1.00 0.73 0.58
0.35 0.36 0.38 0.39 0.47 0.56 0.63 0.56 0.56 0.60 0.59 0.51 0.57 0.66 0.67 0.63 0.58 0.46 0.43 0.45 0.49 0.61 0.76 0.86 0.97 1.00 1.04 1.16 1.33 1.29 1.15 1.19 1.59 2.16 2.47 2.34 1.89 1.43 1.19 1.28 1.52 1.39 0.99
0.33 0.31 0.31 0.33 0.36 0.39 0.42 0.44 0.51 0.54 0.55 0.50 0.50 0.56 0.64 0.66 0.66 0.59 0.50 0.48 0.45 0.42 0.58 0.76 0.91 0.97 0.94 1.07 1.30 1.33 1.26 1.15 1.07 1.20 1.61 1.94 1.96 1.70 1.43 1.50 1.94 2.20 1.99
0.32 0.33 0.34 0.36 0.36 0.36 0.38 0.39 0.42 0.45 0.50 0.55 0.53 0.57 0.66 0.70 0.67 0.66 0.59 0.52 0.49 0.43 0.48 0.65 0.91 1.04 1.01 1.04 0.96 0.96 0.99 0.90 0.84 0.85 0.98 1.19 1.45 1.58 1.60 1.73 2.07 2.45 2.66
0.28 0.32 0.36 0.39 0.41 0.42 0.41 0.40 0.41 0.43 0.49 0.56 0.57 0.55 0.57 0.63 0.70 0.72 0.67 0.59 0.60 0.60 0.69 0.73 0.81 0.94 0.92 0.97 0.91 0.77 0.62 0.56 0.54 0.58 0.73 0.91 1.12 1.36 1.50 1.57 1.81 2.11 2.34
0.30 0.33 0.32 0.33 0.36 0.38 0.40 0.43 0.39 0.39 0.49 0.57 0.61 0.70 0.67 0.59 0.74 0.82 0.78 0.78 0.75 0.80 0.95 0.88 0.80 0.80 0.83 0.87 0.77 0.65 0.49 0.43 0.40 0.39 0.44 0.47 0.56 0.69 0.84 0.98 1.15 1.37 1.56
0.33 0.34 0.32 0.33 0.36 0.38 0.41 0.44 0.44 0.48 0.55 0.58 0.65 0.79 0.84 0.79 0.79 0.84 0.89 0.94 0.99 0.96 0.95 0.90 0.80 0.74 0.72 0.71 0.63 0.54 0.42 0.38 0.37 0.35 0.34 0.34 0.36 0.42 0.46 0.51 0.57 0.67 0.74
0.32 0.36 0.39 0.40 0.39 0.40 0.48 0.55 0.54 0.55 0.63 0.71 0.84 0.92 0.96 0.98 0.96 0.88 0.92 0.97 1.00 1.06 1.02 0.85 0.78 0.79 0.71 0.55 0.53 0.47 0.40 0.42 0.39 0.36 0.33 0.31 0.30 0.35 0.39 0.40 0.38 0.41 0.46
0.34 0.36 0.40 0.43 0.43 0.50 0.68 0.86 0.83 0.74 0.79 0.89 0.98 1.09 1.13 1.17 1.16 1.04 0.98 0.95 0.96 1.05 0.99 0.83 0.78 0.80 0.69 0.53 0.46 0.44 0.41 0.40 0.36 0.37 0.33 0.29 0.28 0.29 0.32 0.35 0.34 0.33 0.34
0.30 0.28 0.31 0.34 0.37 0.44 0.61 0.91 1.06 1.08 1.05 0.98 1.04 1.23 1.31 1.26 1.15 1.06 1.05 0.99 0.98 1.07 1.02 0.92 0.90 0.85 0.77 0.67 0.57 0.51 0.43 0.40 0.38 0.39 0.35 0.31 0.28 0.27 0.27 0.27 0.27 0.27 0.28
0.33 0.31 0.32 0.35 0.39 0.42 0.48 0.67 0.88 1.00 1.03 0.99 1.05 1.10 1.13 1.19 1.15 1.07 1.01 0.97 0.96 1.07 1.07 0.97 1.03 1.02 0.92 0.80 0.67 0.56 0.48 0.46 0.39 0.37 0.38 0.35 0.33 0.27 0.25 0.25 0.25 0.25 0.24
0.39 0.38 0.40 0.42 0.42 0.39 0.39 0.51 0.67 0.77 0.82 0.87 0.91 0.95 0.98 1.01 1.07 1.12 1.06 1.00 1.01 1.04 1.06 1.05 1.08 1.21 1.12 0.95 0.78 0.64 0.55 0.51 0.46 0.35 0.35 0.39 0.37 0.32 0.28 0.25 0.24 0.23 0.25
0.43 0.46 0.49 0.48 0.43 0.38 0.38 0.51 0.58 0.53 0.58 0.63 0.66 0.67 0.77 0.94 1.03 1.08 1.01 0.99 1.05 1.05 1.05 1.10 1.13 1.26 1.28 1.13 0.90 0.69 0.60 0.57 0.54 0.47 0.40 0.33 0.31 0.28 0.26 0.27 0.27 0.25 0.22
0.47 0.52 0.52 0.54 0.51 0.38 0.39 0.43 0.41 0.38 0.42 0.49 0.52 0.51 0.52 0.63 0.79 0.90 0.90 0.89 0.94 1.00 1.05 1.08 1.15 1.23 1.30 1.21 1.04 0.88 0.73 0.62 0.58 0.55 0.56 0.49 0.38 0.32 0.27 0.22 0.25 0.26 0.25
0.59 0.61 0.59 0.58 0.55 0.50 0.42 0.35 0.30 0.30 0.36 0.44 0.48 0.48 0.39 0.38 0.54 0.66 0.75 0.78 0.77 0.77 0.86 1.02 1.14 1.15 1.27 1.33 1.26 1.05 0.94 0.82 0.64 0.60 0.65 0.63 0.54 0.43 0.32 0.29 0.33 0.28 0.27
0.76 0.74 0.71 0.71 0.75 0.69 0.57 0.45 0.37 0.30 0.33 0.39 0.44 0.45 0.45 0.45 0.46 0.52 0.64 0.72 0.75 0.72 0.70 0.77 0.92 1.10 1.27 1.43 1.42 1.29 1.19 1.04 0.85 0.74 0.72 0.69 0.62 0.53 0.43 0.36 0.36 0.32 0.29
0.98 0.95 0.92 0.92 0.95 0.98 0.87 0.67 0.56 0.46 0.45 0.46 0.50 0.51 0.51 0.48 0.45 0.40 0.48 0.55 0.60 0.69 0.67 0.68 0.78 0.98 1.16 1.31 1.47 1.41 1.28 1.10 0.90 0.76 0.70 0.63 0.58 0.59 0.54 0.44 0.38 0.37 0.32
1.15 1.13 1.12 1.12 1.12 1.15 1.04 0.77 0.67 0.61 0.66 0.67 0.71 0.68 0.54 0.45 0.39 0.34 0.40 0.48 0.50 0.53 0.62 0.68 0.72 0.82 0.97 1.09 1.24 1.24 1.10 1.03 0.87 0.73 0.62 0.58 0.52 0.56 0.60 0.52 0.43 0.37 0.34